Time,TemperatureF,DewpointF,PressureIn,WindDirection,WindDirectionDegrees,WindSpeedMPH,WindSpeedGustMPH,Humidity,HourlyPrecipIn,Conditions,Clouds,dailyrainin,SoftwareType,DateUTC
2013-04-01 00:03:00,39.5,35.7,29.81,ESE,116,0.0,0.0,86,0.00,,---,0.00,VWS V14.01,2013-04-01 07:03:00,
2013-04-01 00:08:00,39.5,36.0,29.82,ESE,116,0.0,0.0,87,0.00,,---,0.00,VWS V14.01,2013-04-01 07:08:00,
2013-04-01 00:13:00,39.3,35.8,29.82,ESE,116,0.0,0.0,87,0.00,,---,0.00,VWS V14.01,2013-04-01 07:13:00,
2013-04-01 00:18:00,38.8,35.3,29.82,ESE,116,0.0,0.0,87,0.00,,---,0.00,VWS V14.01,2013-04-01 07:18:00,
2013-04-01 00:23:00,38.2,34.7,29.82,ESE,116,0.0,0.0,87,0.00,,---,0.00,VWS V14.01,2013-04-01 07:23:00,
2013-04-01 00:28:00,37.8,34.9,29.82,ESE,116,0.0,0.0,89,0.00,,---,0.00,VWS V14.01,2013-04-01 07:28:00,
2013-04-01 00:33:00,38.0,35.0,29.81,ESE,116,0.0,0.0,89,0.00,,---,0.00,VWS V14.01,2013-04-01 07:33:00,
2013-04-01 00:38:00,38.0,35.0,29.82,ESE,116,0.0,0.0,89,0.00,,---,0.00,VWS V14.01,2013-04-01 07:38:00,
2013-04-01 00:43:00,37.9,35.0,29.82,ESE,116,0.0,0.0,89,0.00,,---,0.00,VWS V14.01,2013-04-01 07:43:00,
2013-04-01 00:48:00,38.0,35.0,29.82,ESE,116,0.0,0.0,89,0.00,,---,0.00,VWS V14.01,2013-04-01 07:48:00,
2013-04-01 00:53:00,37.9,35.0,29.82,ESE,116,0.0,0.0,89,0.00,,---,0.00,VWS V14.01,2013-04-01 07:53:00,
2013-04-01 00:58:00,38.0,35.3,29.82,ESE,116,0.0,0.0,90,0.00,,---,0.00,VWS V14.01,2013-04-01 07:58:00,
2013-04-01 01:03:00,38.0,35.3,29.82,ESE,116,0.0,0.0,90,0.00,,---,0.00,VWS V14.01,2013-04-01 08:03:00,
2013-04-01 01:08:00,38.0,35.3,29.82,ESE,116,0.0,0.0,90,0.00,,---,0.00,VWS V14.01,2013-04-01 08:08:00,
2013-04-01 01:13:00,37.8,35.4,29.82,ESE,116,0.0,0.0,91,0.00,,---,0.00,VWS V14.01,2013-04-01 08:13:00,
2013-04-01 01:18:00,37.7,35.3,29.82,ESE,116,0.0,0.0,91,0.00,,---,0.00,VWS V14.01,2013-04-01 08:18:00,
2013-04-01 01:23:00,37.7,35.6,29.82,ESE,116,0.0,0.0,92,0.00,,---,0.00,VWS V14.01,2013-04-01 08:23:00,
2013-04-01 01:28:00,37.5,35.4,29.82,ESE,116,0.0,0.0,92,0.00,,---,0.00,VWS V14.01,2013-04-01 08:28:00,
2013-04-01 01:33:00,37.3,35.2,29.82,ESE,116,0.0,0.0,92,0.00,,---,0.00,VWS V14.01,2013-04-01 08:33:00,
2013-04-01 01:38:00,37.1,35.0,29.82,ESE,116,0.0,0.0,92,0.00,,---,0.00,VWS V14.01,2013-04-01 08:38:00,
2013-04-01 01:43:00,37.0,34.9,29.82,ESE,116,0.0,0.0,92,0.00,,---,0.00,VWS V14.01,2013-04-01 08:43:00,
2013-04-01 01:48:00,36.9,34.8,29.82,ESE,116,0.0,0.0,92,0.00,,---,0.00,VWS V14.01,2013-04-01 08:48:00,
2013-04-01 01:53:00,36.8,35.0,29.82,ESE,116,0.0,0.0,93,0.00,,---,0.00,VWS V14.01,2013-04-01 08:53:00,
2013-04-01 01:58:00,36.6,34.8,29.82,ESE,116,0.0,0.0,93,0.00,,---,0.00,VWS V14.01,2013-04-01 08:58:00,
2013-04-01 02:03:00,36.6,34.8,29.82,ESE,116,0.0,0.0,93,0.00,,---,0.00,VWS V14.01,2013-04-01 09:03:00,
2013-04-01 02:08:00,36.4,34.6,29.82,ESE,116,0.0,0.0,93,0.00,,---,0.00,VWS V14.01,2013-04-01 09:08:00,
2013-04-01 02:13:00,36.2,34.4,29.82,ESE,116,0.0,0.0,93,0.00,,---,0.00,VWS V14.01,2013-04-01 09:13:00,
2013-04-01 02:18:00,36.2,34.4,29.82,ESE,116,0.0,0.0,93,0.00,,---,0.00,VWS V14.01,2013-04-01 09:18:00,
2013-04-01 02:23:00,36.0,34.2,29.82,ESE,116,0.0,0.0,93,0.00,,---,0.00,VWS V14.01,2013-04-01 09:23:00,
2013-04-01 02:28:00,35.9,34.3,29.82,ESE,116,0.0,0.0,94,0.00,,---,0.00,VWS V14.01,2013-04-01 09:28:00,
2013-04-01 02:33:00,35.7,34.2,29.82,ESE,116,0.0,0.0,94,0.00,,---,0.00,VWS V14.01,2013-04-01 09:33:00,
2013-04-01 02:38:00,35.3,33.8,29.82,ESE,116,0.0,0.0,94,0.00,,---,0.00,VWS V14.01,2013-04-01 09:38:00,
2013-04-01 02:43:00,35.1,33.5,29.82,ESE,116,0.0,0.0,94,0.00,,---,0.00,VWS V14.01,2013-04-01 09:43:00,
2013-04-01 02:48:00,35.2,33.7,29.82,ESE,116,0.0,0.0,94,0.00,,---,0.00,VWS V14.01,2013-04-01 09:48:00,
2013-04-01 02:53:00,35.5,34.2,29.82,ESE,116,0.0,0.0,95,0.00,,---,0.00,VWS V14.01,2013-04-01 09:53:00,
2013-04-01 02:58:00,35.3,33.8,29.82,ESE,116,0.0,0.0,94,0.00,,---,0.00,VWS V14.01,2013-04-01 09:58:00,
2013-04-01 03:03:00,35.3,34.0,29.82,ESE,116,0.0,0.0,95,0.00,,---,0.00,VWS V14.01,2013-04-01 10:03:00,
2013-04-01 03:08:00,35.3,34.0,29.82,ESE,116,0.0,0.0,95,0.00,,---,0.00,VWS V14.01,2013-04-01 10:08:00,
2013-04-01 03:13:00,34.9,33.3,29.82,ESE,116,0.0,0.0,94,0.00,,---,0.00,VWS V14.01,2013-04-01 10:13:00,
2013-04-01 03:18:00,34.7,33.2,29.82,ESE,116,0.0,0.0,94,0.00,,---,0.00,VWS V14.01,2013-04-01 10:18:00,
2013-04-01 03:23:00,34.6,33.0,29.82,ESE,116,0.0,0.0,94,0.00,,---,0.00,VWS V14.01,2013-04-01 10:23:00,
2013-04-01 03:28:00,34.4,32.9,29.82,ESE,116,0.0,0.0,94,0.00,,---,0.00,VWS V14.01,2013-04-01 10:28:00,
2013-04-01 03:33:00,34.3,32.8,29.82,ESE,116,0.0,0.0,94,0.00,,---,0.00,VWS V14.01,2013-04-01 10:33:00,
2013-04-01 03:39:00,34.3,32.8,29.82,ESE,116,0.0,0.0,94,0.00,,---,0.00,VWS V14.01,2013-04-01 10:39:00,
2013-04-01 03:44:00,34.3,33.0,29.82,ESE,116,0.0,0.0,95,0.00,,---,0.00,VWS V14.01,2013-04-01 10:44:00,
2013-04-01 03:49:00,34.3,33.0,29.82,ESE,116,0.0,0.0,95,0.00,,---,0.00,VWS V14.01,2013-04-01 10:49:00,
2013-04-01 03:54:00,34.6,33.3,29.82,ESE,116,0.0,0.0,95,0.00,,---,0.00,VWS V14.01,2013-04-01 10:54:00,
2013-04-01 03:59:00,34.8,33.8,29.82,ESE,116,0.0,0.0,96,0.00,,---,0.00,VWS V14.01,2013-04-01 10:59:00,
2013-04-01 04:04:00,34.6,33.3,29.82,ESE,116,0.0,0.0,95,0.00,,---,0.00,VWS V14.01,2013-04-01 11:04:00,
2013-04-01 04:09:00,34.6,33.3,29.82,ESE,116,0.0,0.0,95,0.00,,---,0.00,VWS V14.01,2013-04-01 11:09:00,
2013-04-01 04:14:00,34.7,33.7,29.82,ESE,116,0.0,0.0,96,0.00,,---,0.00,VWS V14.01,2013-04-01 11:14:00,
2013-04-01 04:19:00,34.6,33.6,29.82,ESE,116,0.0,0.0,96,0.00,,---,0.00,VWS V14.01,2013-04-01 11:19:00,
2013-04-01 04:24:00,34.7,33.7,29.82,ESE,116,0.0,1.0,96,0.00,,---,0.00,VWS V14.01,2013-04-01 11:24:00,
2013-04-01 04:29:00,34.8,33.8,29.82,ESE,116,0.0,1.0,96,0.00,,---,0.00,VWS V14.01,2013-04-01 11:29:00,
2013-04-01 04:34:00,34.7,33.7,29.82,ESE,116,0.0,1.0,96,0.00,,---,0.00,VWS V14.01,2013-04-01 11:34:00,
2013-04-01 04:39:00,34.5,33.2,29.82,ESE,116,0.0,1.0,95,0.00,,---,0.00,VWS V14.01,2013-04-01 11:39:00,
2013-04-01 04:44:00,34.4,33.1,29.82,ESE,116,0.0,1.0,95,0.00,,---,0.00,VWS V14.01,2013-04-01 11:44:00,
2013-04-01 04:49:00,34.3,33.0,29.82,ESE,116,0.0,1.0,95,0.00,,---,0.00,VWS V14.01,2013-04-01 11:49:00,
2013-04-01 04:54:00,34.4,33.1,29.82,ESE,116,0.0,2.0,95,0.00,,---,0.00,VWS V14.01,2013-04-01 11:54:00,
2013-04-01 04:59:00,34.2,32.9,29.82,ESE,116,0.0,2.0,95,0.00,,---,0.00,VWS V14.01,2013-04-01 11:59:00,
2013-04-01 05:04:00,34.2,33.2,29.82,ESE,116,0.0,0.0,96,0.00,,---,0.00,VWS V14.01,2013-04-01 12:04:00,
2013-04-01 05:09:00,34.3,33.3,29.82,ESE,116,0.0,1.0,96,0.00,,---,0.00,VWS V14.01,2013-04-01 12:09:00,
2013-04-01 05:14:00,34.5,33.5,29.82,ESE,116,0.0,2.0,96,0.00,,---,0.00,VWS V14.01,2013-04-01 12:14:00,
2013-04-01 05:19:00,35.2,34.2,29.82,NNW,329,0.0,4.0,96,0.00,,---,0.00,VWS V14.01,2013-04-01 12:19:00,
2013-04-01 05:24:00,35.4,34.1,29.82,NNW,329,0.0,4.0,95,0.00,,---,0.00,VWS V14.01,2013-04-01 12:24:00,
2013-04-01 05:29:00,35.9,34.6,29.82,North,360,0.0,4.0,95,0.00,,---,0.00,VWS V14.01,2013-04-01 12:29:00,
2013-04-01 05:34:00,36.5,35.2,29.82,ENE,69,0.0,4.0,95,0.00,,---,0.00,VWS V14.01,2013-04-01 12:34:00,
2013-04-01 05:39:00,36.7,35.1,29.82,ENE,69,0.0,4.0,94,0.00,,---,0.00,VWS V14.01,2013-04-01 12:39:00,
2013-04-01 05:44:00,36.8,35.0,29.82,ENE,69,0.0,4.0,93,0.00,,---,0.00,VWS V14.01,2013-04-01 12:44:00,
2013-04-01 05:49:00,37.2,35.4,29.82,NE,38,1.0,4.0,93,0.00,,---,0.00,VWS V14.01,2013-04-01 12:49:00,
2013-04-01 05:54:00,37.1,35.0,29.82,NE,38,3.0,4.0,92,0.00,,---,0.00,VWS V14.01,2013-04-01 12:54:00,
2013-04-01 05:59:00,37.4,35.3,29.82,NE,38,0.0,4.0,92,0.00,,---,0.00,VWS V14.01,2013-04-01 12:59:00,
2013-04-01 06:04:00,37.0,34.6,29.82,NE,38,1.0,2.0,91,0.00,,---,0.00,VWS V14.01,2013-04-01 13:04:00,
2013-04-01 06:09:00,37.0,34.9,29.82,NE,38,0.0,2.0,92,0.00,,---,0.00,VWS V14.01,2013-04-01 13:09:00,
2013-04-01 06:14:00,36.9,35.1,29.82,NE,38,0.0,2.0,93,0.00,,---,0.00,VWS V14.01,2013-04-01 13:14:00,
2013-04-01 06:19:00,36.7,34.9,29.82,NE,38,0.0,2.0,93,0.00,,---,0.00,VWS V14.01,2013-04-01 13:19:00,
2013-04-01 06:24:00,36.4,34.6,29.82,NE,38,0.0,2.0,93,0.00,,---,0.00,VWS V14.01,2013-04-01 13:24:00,
2013-04-01 06:29:00,36.6,35.0,29.83,NE,38,0.0,2.0,94,0.00,,---,0.00,VWS V14.01,2013-04-01 13:29:00,
2013-04-01 06:34:00,36.6,35.0,29.83,NE,38,0.0,2.0,94,0.00,,---,0.00,VWS V14.01,2013-04-01 13:34:00,
2013-04-01 06:39:00,36.4,34.8,29.83,NE,38,0.0,2.0,94,0.00,,---,0.00,VWS V14.01,2013-04-01 13:39:00,
2013-04-01 06:44:00,36.7,35.1,29.83,East,91,1.0,4.0,94,0.00,,---,0.00,VWS V14.01,2013-04-01 13:44:00,
2013-04-01 06:49:00,37.3,35.7,29.83,NNE,30,0.0,4.0,94,0.00,,---,0.00,VWS V14.01,2013-04-01 13:49:00,
2013-04-01 06:54:00,38.0,35.9,29.83,NNE,30,1.0,4.0,92,0.00,,---,0.00,VWS V14.01,2013-04-01 13:54:00,
2013-04-01 06:59:00,38.5,36.4,29.83,NNE,30,2.0,4.0,92,0.00,,---,0.00,VWS V14.01,2013-04-01 13:59:00,
2013-04-01 07:04:00,38.8,36.4,29.83,NNE,30,0.0,2.0,91,0.00,,---,0.00,VWS V14.01,2013-04-01 14:04:00,
2013-04-01 07:09:00,39.1,36.4,29.83,NNE,30,2.0,2.0,90,0.00,,---,0.00,VWS V14.01,2013-04-01 14:09:00,
2013-04-01 07:14:00,41.0,37.4,29.83,NNE,24,2.0,5.0,87,0.00,,---,0.00,VWS V14.01,2013-04-01 14:14:00,
2013-04-01 07:19:00,42.0,37.2,29.83,NNE,13,2.0,5.0,83,0.00,,---,0.00,VWS V14.01,2013-04-01 14:19:00,
2013-04-01 07:24:00,43.2,37.1,29.83,East,92,4.0,5.0,79,0.00,,---,0.00,VWS V14.01,2013-04-01 14:24:00,
2013-04-01 07:29:00,44.2,37.5,29.83,NE,42,0.0,5.0,77,0.00,,---,0.00,VWS V14.01,2013-04-01 14:29:00,
2013-04-01 07:34:00,44.9,37.5,29.83,North,5,3.0,8.0,75,0.00,,---,0.00,VWS V14.01,2013-04-01 14:34:00,
2013-04-01 07:39:00,45.3,37.9,29.84,NNW,347,1.0,8.0,75,0.00,,---,0.00,VWS V14.01,2013-04-01 14:39:00,
2013-04-01 07:44:00,45.7,37.5,29.84,NNE,27,4.0,8.0,73,0.00,,---,0.00,VWS V14.01,2013-04-01 14:44:00,
2013-04-01 07:49:00,46.1,37.6,29.84,NE,55,1.0,8.0,72,0.00,,---,0.00,VWS V14.01,2013-04-01 14:49:00,
2013-04-01 07:54:00,46.1,37.6,29.84,East,89,4.0,8.0,72,0.00,,---,0.00,VWS V14.01,2013-04-01 14:54:00,
2013-04-01 07:59:00,46.1,37.9,29.84,NE,35,1.0,8.0,73,0.00,,---,0.00,VWS V14.01,2013-04-01 14:59:00,
2013-04-01 08:04:00,46.1,37.9,29.84,ENE,62,1.0,2.0,73,0.00,,---,0.00,VWS V14.01,2013-04-01 15:04:00,
2013-04-01 08:09:00,46.1,37.9,29.84,ENE,62,0.0,3.0,73,0.00,,---,0.00,VWS V14.01,2013-04-01 15:09:00,
2013-04-01 08:14:00,46.4,38.2,29.84,NE,40,0.0,3.0,73,0.00,,---,0.00,VWS V14.01,2013-04-01 15:14:00,
2013-04-01 08:19:00,46.9,38.7,29.84,North,351,2.0,5.0,73,0.00,,---,0.00,VWS V14.01,2013-04-01 15:19:00,
2013-04-01 08:24:00,47.4,38.5,29.84,ENE,70,2.0,6.0,71,0.00,,---,0.00,VWS V14.01,2013-04-01 15:24:00,
2013-04-01 08:29:00,47.7,38.8,29.84,NE,35,1.0,7.0,71,0.00,,---,0.00,VWS V14.01,2013-04-01 15:29:00,
2013-04-01 08:34:00,48.1,38.4,29.84,East,80,2.0,7.0,69,0.00,,---,0.00,VWS V14.01,2013-04-01 15:34:00,
2013-04-01 08:39:00,48.2,38.5,29.84,ENE,75,2.0,7.0,69,0.00,,---,0.00,VWS V14.01,2013-04-01 15:39:00,
2013-04-01 08:44:00,48.4,38.3,29.84,NNE,21,4.0,7.0,68,0.00,,---,0.00,VWS V14.01,2013-04-01 15:44:00,
2013-04-01 08:49:00,48.9,38.8,29.84,NE,39,2.0,7.0,68,0.00,,---,0.00,VWS V14.01,2013-04-01 15:49:00,
2013-04-01 08:54:00,49.9,40.2,29.84,North,5,5.0,7.0,69,0.00,,---,0.00,VWS V14.01,2013-04-01 15:54:00,
2013-04-01 09:00:00,50.3,39.0,29.84,NNE,22,3.0,7.0,65,0.00,,---,0.00,VWS V14.01,2013-04-01 16:00:00,
2013-04-01 09:05:00,50.3,38.6,29.84,NE,43,0.0,3.0,64,0.00,,---,0.00,VWS V14.01,2013-04-01 16:05:00,
2013-04-01 09:10:00,50.8,39.1,29.84,NNW,340,3.0,7.0,64,0.00,,---,0.00,VWS V14.01,2013-04-01 16:10:00,
2013-04-01 09:15:00,51.3,39.2,29.84,ENE,69,3.0,8.0,63,0.00,,---,0.00,VWS V14.01,2013-04-01 16:15:00,
2013-04-01 09:20:00,51.6,39.0,29.84,East,88,1.0,8.0,62,0.00,,---,0.00,VWS V14.01,2013-04-01 16:20:00,
2013-04-01 09:25:00,52.4,39.8,29.84,NE,42,3.0,8.0,62,0.00,,---,0.00,VWS V14.01,2013-04-01 16:25:00,
2013-04-01 09:30:00,52.3,39.3,29.84,NNE,30,5.0,8.0,61,0.00,,---,0.00,VWS V14.01,2013-04-01 16:30:00,
2013-04-01 09:35:00,52.7,40.1,29.84,NE,44,3.0,8.0,62,0.00,,---,0.00,VWS V14.01,2013-04-01 16:35:00,
2013-04-01 09:41:00,53.7,41.4,29.84,NNE,15,1.0,8.0,63,0.00,,---,0.00,VWS V14.01,2013-04-01 16:41:00,
2013-04-01 09:46:00,54.5,40.5,29.84,NE,36,2.0,8.0,59,0.00,,---,0.00,VWS V14.01,2013-04-01 16:46:00,
2013-04-01 09:52:00,54.6,40.6,29.84,ENE,57,2.0,8.0,59,0.00,,---,0.00,VWS V14.01,2013-04-01 16:52:00,
2013-04-01 09:57:00,55.0,40.1,29.84,East,84,0.0,9.0,57,0.00,,---,0.00,VWS V14.01,2013-04-01 16:57:00,
2013-04-01 10:02:00,55.1,39.7,29.84,ENE,74,1.0,3.0,56,0.00,,---,0.00,VWS V14.01,2013-04-01 17:02:00,
2013-04-01 10:07:00,55.9,40.0,29.84,NNE,32,2.0,6.0,55,0.00,,---,0.00,VWS V14.01,2013-04-01 17:07:00,
2013-04-01 10:12:00,56.1,40.2,29.84,NE,49,3.0,6.0,55,0.00,,---,0.00,VWS V14.01,2013-04-01 17:12:00,
2013-04-01 10:17:00,56.5,40.5,29.84,ESE,111,2.0,6.0,55,0.00,,---,0.00,VWS V14.01,2013-04-01 17:17:00,
2013-04-01 10:22:00,56.9,39.5,29.84,NE,55,0.0,8.0,52,0.00,,---,0.00,VWS V14.01,2013-04-01 17:22:00,
2013-04-01 10:27:00,57.1,40.2,29.84,East,89,2.0,8.0,53,0.00,,---,0.00,VWS V14.01,2013-04-01 17:27:00,
2013-04-01 10:32:00,58.0,40.5,29.84,NNE,22,3.0,8.0,52,0.00,,---,0.00,VWS V14.01,2013-04-01 17:32:00,
2013-04-01 10:37:00,58.5,39.9,29.84,North,355,6.0,8.0,50,0.00,,---,0.00,VWS V14.01,2013-04-01 17:37:00,
2013-04-01 10:42:00,58.5,39.4,29.84,NE,46,2.0,8.0,49,0.00,,---,0.00,VWS V14.01,2013-04-01 17:42:00,
2013-04-01 10:47:00,58.5,39.4,29.84,NNE,20,4.0,8.0,49,0.00,,---,0.00,VWS V14.01,2013-04-01 17:47:00,
2013-04-01 10:52:00,59.0,40.4,29.84,ESE,106,0.0,8.0,50,0.00,,---,0.00,VWS V14.01,2013-04-01 17:52:00,
2013-04-01 10:57:00,59.1,39.5,29.84,East,81,2.0,8.0,48,0.00,,---,0.00,VWS V14.01,2013-04-01 17:57:00,
2013-04-01 11:02:00,59.2,40.1,29.84,SSE,155,2.0,5.0,49,0.00,,---,0.00,VWS V14.01,2013-04-01 18:02:00,
2013-04-01 11:07:00,59.5,40.3,29.84,NE,54,1.0,5.0,49,0.00,,---,0.00,VWS V14.01,2013-04-01 18:07:00,
2013-04-01 11:12:00,59.9,39.1,29.84,NE,38,2.0,7.0,46,0.00,,---,0.00,VWS V14.01,2013-04-01 18:12:00,
2013-04-01 11:17:00,61.2,41.4,29.85,NNE,15,4.0,7.0,48,0.00,,---,0.00,VWS V14.01,2013-04-01 18:17:00,
2013-04-01 11:22:00,61.6,40.1,29.85,ESE,111,2.0,7.0,45,0.00,,---,0.00,VWS V14.01,2013-04-01 18:22:00,
2013-04-01 11:27:00,61.4,40.5,29.85,NNE,13,3.0,7.0,46,0.00,,---,0.00,VWS V14.01,2013-04-01 18:27:00,
2013-04-01 11:32:00,61.6,39.5,29.84,NE,34,0.0,7.0,44,0.00,,---,0.00,VWS V14.01,2013-04-01 18:32:00,
2013-04-01 11:37:00,62.1,40.5,29.84,NNE,32,3.0,7.0,45,0.00,,---,0.00,VWS V14.01,2013-04-01 18:37:00,
2013-04-01 11:42:00,62.0,39.9,29.84,ENE,78,1.0,7.0,44,0.00,,---,0.00,VWS V14.01,2013-04-01 18:42:00,
2013-04-01 11:48:00,62.5,39.7,29.85,NE,45,2.0,7.0,43,0.00,,---,0.00,VWS V14.01,2013-04-01 18:48:00,
2013-04-01 11:54:00,63.1,39.7,29.84,South,172,0.0,7.0,42,0.00,,---,0.00,VWS V14.01,2013-04-01 18:54:00,
2013-04-01 11:59:00,63.5,40.0,29.84,SSE,158,0.0,7.0,42,0.00,,---,0.00,VWS V14.01,2013-04-01 18:59:00,
2013-04-01 12:05:00,63.9,41.6,29.84,South,169,0.0,4.0,44,0.00,,---,0.00,VWS V14.01,2013-04-01 19:05:00,
2013-04-01 12:10:00,63.6,39.5,29.84,SSE,163,4.0,6.0,41,0.00,,---,0.00,VWS V14.01,2013-04-01 19:10:00,
2013-04-01 12:15:00,63.9,42.2,29.84,SSW,209,4.0,6.0,45,0.00,,---,0.00,VWS V14.01,2013-04-01 19:15:00,
2013-04-01 12:20:00,63.9,40.4,29.84,North,360,2.0,6.0,42,0.00,,---,0.00,VWS V14.01,2013-04-01 19:20:00,
2013-04-01 12:26:00,64.4,41.4,29.84,NNW,341,0.0,6.0,43,0.00,,---,0.00,VWS V14.01,2013-04-01 19:26:00,
2013-04-01 12:31:00,64.6,40.4,29.84,NE,49,2.0,7.0,41,0.00,,---,0.00,VWS V14.01,2013-04-01 19:31:00,
2013-04-01 12:36:00,64.1,41.2,29.84,ENE,61,3.0,7.0,43,0.00,,---,0.00,VWS V14.01,2013-04-01 19:36:00,
2013-04-01 12:41:00,64.0,40.5,29.84,SE,140,0.0,7.0,42,0.00,,---,0.00,VWS V14.01,2013-04-01 19:41:00,
2013-04-01 12:46:00,64.6,40.4,29.84,South,180,2.0,7.0,41,0.00,,---,0.00,VWS V14.01,2013-04-01 19:46:00,
2013-04-01 12:51:00,65.2,40.9,29.84,SW,222,3.0,7.0,41,0.00,,---,0.00,VWS V14.01,2013-04-01 19:51:00,
2013-04-01 12:56:00,65.1,40.2,29.83,ENE,59,2.0,7.0,40,0.00,,---,0.00,VWS V14.01,2013-04-01 19:56:00,
2013-04-01 13:01:00,65.5,41.8,29.83,South,175,4.0,7.0,42,0.00,,---,0.00,VWS V14.01,2013-04-01 20:01:00,
2013-04-01 13:06:00,65.9,42.2,29.83,SSE,158,1.0,7.0,42,0.00,,---,0.00,VWS V14.01,2013-04-01 20:06:00,
2013-04-01 13:11:00,65.9,40.3,29.83,NE,43,1.0,7.0,39,0.00,,---,0.00,VWS V14.01,2013-04-01 20:11:00,
2013-04-01 13:16:00,65.8,39.5,29.83,South,175,0.0,7.0,38,0.00,,---,0.00,VWS V14.01,2013-04-01 20:16:00,
2013-04-01 13:21:00,65.4,40.5,29.83,SSE,158,2.0,7.0,40,0.00,,---,0.00,VWS V14.01,2013-04-01 20:21:00,
2013-04-01 13:26:00,66.1,41.7,29.83,NW,311,1.0,7.0,41,0.00,,---,0.00,VWS V14.01,2013-04-01 20:26:00,
2013-04-01 13:31:00,67.5,41.7,29.83,SSW,198,1.0,7.0,39,0.00,,---,0.00,VWS V14.01,2013-04-01 20:31:00,
2013-04-01 13:37:00,66.4,41.4,29.83,West,269,0.0,7.0,40,0.00,,---,0.00,VWS V14.01,2013-04-01 20:37:00,
2013-04-01 13:42:00,67.4,42.3,29.82,West,269,1.0,7.0,40,0.00,,---,0.00,VWS V14.01,2013-04-01 20:42:00,
2013-04-01 13:47:00,67.3,40.8,29.83,SW,222,2.0,7.0,38,0.00,,---,0.00,VWS V14.01,2013-04-01 20:47:00,
2013-04-01 13:52:00,67.6,41.1,29.82,SSW,213,4.0,7.0,38,0.00,,---,0.00,VWS V14.01,2013-04-01 20:52:00,
2013-04-01 13:57:00,67.2,40.1,29.82,NNW,348,4.0,7.0,37,0.00,,---,0.00,VWS V14.01,2013-04-01 20:57:00,
2013-04-01 14:02:00,67.4,40.9,29.82,WSW,238,5.0,7.0,38,0.00,,---,0.00,VWS V14.01,2013-04-01 21:02:00,
2013-04-01 14:07:00,68.2,41.7,29.82,SSW,207,1.0,7.0,38,0.00,,---,0.00,VWS V14.01,2013-04-01 21:07:00,
2013-04-01 14:12:00,67.9,40.7,29.82,WSW,244,3.0,7.0,37,0.00,,---,0.00,VWS V14.01,2013-04-01 21:12:00,
2013-04-01 14:17:00,68.0,40.8,29.82,SW,222,3.0,7.0,37,0.00,,---,0.00,VWS V14.01,2013-04-01 21:17:00,
2013-04-01 14:22:00,68.2,40.2,29.82,SSW,202,1.0,8.0,36,0.00,,---,0.00,VWS V14.01,2013-04-01 21:22:00,
2013-04-01 14:27:00,68.1,39.4,29.82,SE,138,2.0,8.0,35,0.00,,---,0.00,VWS V14.01,2013-04-01 21:27:00,
2013-04-01 14:32:00,68.1,40.2,29.81,ESE,109,0.0,8.0,36,0.00,,---,0.00,VWS V14.01,2013-04-01 21:32:00,
2013-04-01 14:37:00,68.6,39.9,29.81,NNW,341,3.0,8.0,35,0.00,,---,0.00,VWS V14.01,2013-04-01 21:37:00,
2013-04-01 14:42:00,68.6,40.6,29.81,North,351,3.0,8.0,36,0.00,,---,0.00,VWS V14.01,2013-04-01 21:42:00,
2013-04-01 14:47:00,68.4,38.2,29.81,NNW,345,2.0,8.0,33,0.00,,---,0.00,VWS V14.01,2013-04-01 21:47:00,
2013-04-01 14:52:00,68.6,40.6,29.81,NNW,327,2.0,8.0,36,0.00,,---,0.00,VWS V14.01,2013-04-01 21:52:00,
2013-04-01 14:57:00,68.5,39.0,29.81,NNW,340,2.0,8.0,34,0.00,,---,0.00,VWS V14.01,2013-04-01 21:57:00,
2013-04-01 15:02:00,68.8,41.5,29.81,SW,215,1.0,5.0,37,0.00,,---,0.00,VWS V14.01,2013-04-01 22:02:00,
2013-04-01 15:07:00,69.3,40.5,29.81,South,188,2.0,6.0,35,0.00,,---,0.00,VWS V14.01,2013-04-01 22:07:00,
2013-04-01 15:12:00,69.9,43.2,29.81,SW,225,3.0,6.0,38,0.00,,---,0.00,VWS V14.01,2013-04-01 22:12:00,
2013-04-01 15:17:00,69.5,40.7,29.81,SW,221,1.0,6.0,35,0.00,,---,0.00,VWS V14.01,2013-04-01 22:17:00,
2013-04-01 15:22:00,69.3,39.0,29.81,South,179,5.0,7.0,33,0.00,,---,0.00,VWS V14.01,2013-04-01 22:22:00,
2013-04-01 15:27:00,68.2,38.0,29.81,South,185,1.0,7.0,33,0.00,,---,0.00,VWS V14.01,2013-04-01 22:27:00,
2013-04-01 15:32:00,68.8,38.5,29.81,South,185,1.0,7.0,33,0.00,,---,0.00,VWS V14.01,2013-04-01 22:32:00,
2013-04-01 15:37:00,69.3,40.5,29.81,SSW,202,3.0,7.0,35,0.00,,---,0.00,VWS V14.01,2013-04-01 22:37:00,
2013-04-01 15:42:00,69.4,40.6,29.80,NW,321,1.0,7.0,35,0.00,,---,0.00,VWS V14.01,2013-04-01 22:42:00,
2013-04-01 15:47:00,69.5,39.9,29.80,SSW,208,4.0,9.0,34,0.00,,---,0.00,VWS V14.01,2013-04-01 22:47:00,
2013-04-01 15:52:00,69.2,40.4,29.80,SW,226,2.0,9.0,35,0.00,,---,0.00,VWS V14.01,2013-04-01 22:52:00,
2013-04-01 15:57:00,69.6,39.2,29.80,SW,221,2.0,9.0,33,0.00,,---,0.00,VWS V14.01,2013-04-01 22:57:00,
2013-04-01 16:02:00,69.2,41.1,29.80,SSW,205,0.0,2.0,36,0.00,,---,0.00,VWS V14.01,2013-04-01 23:02:00,
2013-04-01 16:07:00,69.0,39.5,29.80,South,174,4.0,6.0,34,0.00,,---,0.00,VWS V14.01,2013-04-01 23:07:00,
2013-04-01 16:12:00,68.8,40.1,29.80,WSW,241,3.0,6.0,35,0.00,,---,0.00,VWS V14.01,2013-04-01 23:12:00,
2013-04-01 16:17:00,68.6,39.9,29.80,NW,317,1.0,6.0,35,0.00,,---,0.00,VWS V14.01,2013-04-01 23:17:00,
2013-04-01 16:22:00,69.0,41.0,29.80,SE,127,2.0,6.0,36,0.00,,---,0.00,VWS V14.01,2013-04-01 23:22:00,
2013-04-01 16:27:00,69.6,41.5,29.80,SW,225,1.0,6.0,36,0.00,,---,0.00,VWS V14.01,2013-04-01 23:27:00,
2013-04-01 16:32:00,68.9,40.2,29.80,SW,224,1.0,6.0,35,0.00,,---,0.00,VWS V14.01,2013-04-01 23:32:00,
2013-04-01 16:37:00,69.1,41.0,29.80,SW,225,0.0,6.0,36,0.00,,---,0.00,VWS V14.01,2013-04-01 23:37:00,
2013-04-01 16:42:00,68.9,40.2,29.80,SE,136,2.0,6.0,35,0.00,,---,0.00,VWS V14.01,2013-04-01 23:42:00,
2013-04-01 16:47:00,69.1,41.0,29.80,SSW,192,3.0,6.0,36,0.00,,---,0.00,VWS V14.01,2013-04-01 23:47:00,
2013-04-01 16:52:00,69.2,41.1,29.80,WSW,250,3.0,6.0,36,0.00,,---,0.00,VWS V14.01,2013-04-01 23:52:00,
2013-04-01 16:58:00,69.1,39.6,29.80,WSW,258,3.0,6.0,34,0.00,,---,0.00,VWS V14.01,2013-04-01 23:58:00,
2013-04-01 17:03:00,69.1,40.3,29.80,SW,218,2.0,6.0,35,0.00,,---,0.00,VWS V14.01,2013-04-02 00:03:00,
2013-04-01 17:08:00,69.4,39.1,29.80,SW,219,1.0,6.0,33,0.00,,---,0.00,VWS V14.01,2013-04-02 00:08:00,
2013-04-01 17:13:00,68.8,40.1,29.79,NNW,341,2.0,6.0,35,0.00,,---,0.00,VWS V14.01,2013-04-02 00:13:00,
2013-04-01 17:18:00,68.6,39.9,29.79,WSW,254,2.0,6.0,35,0.00,,---,0.00,VWS V14.01,2013-04-02 00:18:00,
2013-04-01 17:22:00,68.5,38.3,29.79,SW,227,3.0,7.0,33,0.00,,---,0.00,VWS V14.01,2013-04-02 00:22:00,
2013-04-01 17:28:00,68.8,40.8,29.80,SW,219,2.0,7.0,36,0.00,,---,0.00,VWS V14.01,2013-04-02 00:28:00,
2013-04-01 17:33:00,69.1,39.6,29.79,NNW,346,2.0,7.0,34,0.00,,---,0.00,VWS V14.01,2013-04-02 00:33:00,
2013-04-01 17:38:00,69.2,38.9,29.79,North,355,2.0,7.0,33,0.00,,---,0.00,VWS V14.01,2013-04-02 00:38:00,
2013-04-01 17:42:00,69.0,38.7,29.80,North,355,0.0,7.0,33,0.00,,---,0.00,VWS V14.01,2013-04-02 00:42:00,
2013-04-01 17:48:00,69.1,40.3,29.80,West,265,0.0,7.0,35,0.00,,---,0.00,VWS V14.01,2013-04-02 00:48:00,
2013-04-01 17:53:00,68.9,38.6,29.80,West,265,0.0,7.0,33,0.00,,---,0.00,VWS V14.01,2013-04-02 00:53:00,
2013-04-01 17:58:00,68.7,40.0,29.80,West,265,0.0,7.0,35,0.00,,---,0.00,VWS V14.01,2013-04-02 00:58:00,
2013-04-01 18:03:00,68.5,40.5,29.80,SW,218,0.0,4.0,36,0.00,,---,0.00,VWS V14.01,2013-04-02 01:03:00,
2013-04-01 18:08:00,68.1,40.9,29.80,SW,227,0.0,4.0,37,0.00,,---,0.00,VWS V14.01,2013-04-02 01:08:00,
2013-04-01 18:13:00,67.8,42.0,29.80,SSW,192,0.0,5.0,39,0.00,,---,0.00,VWS V14.01,2013-04-02 01:13:00,
2013-04-01 18:18:00,67.4,40.2,29.80,SSW,192,0.0,5.0,37,0.00,,---,0.00,VWS V14.01,2013-04-02 01:18:00,
2013-04-01 18:23:00,67.1,41.3,29.80,SSW,192,0.0,5.0,39,0.00,,---,0.00,VWS V14.01,2013-04-02 01:23:00,
2013-04-01 18:28:00,66.8,41.1,29.80,SSW,192,0.0,5.0,39,0.00,,---,0.00,VWS V14.01,2013-04-02 01:28:00,
2013-04-01 18:34:00,66.5,40.8,29.80,SSW,192,0.0,5.0,39,0.00,,---,0.00,VWS V14.01,2013-04-02 01:34:00,
2013-04-01 18:39:00,66.1,42.4,29.80,SSW,192,0.0,5.0,42,0.00,,---,0.00,VWS V14.01,2013-04-02 01:39:00,
2013-04-01 18:44:00,65.8,42.1,29.80,SSW,192,0.0,5.0,42,0.00,,---,0.00,VWS V14.01,2013-04-02 01:44:00,
2013-04-01 18:50:00,65.4,41.1,29.80,SSW,192,0.0,5.0,41,0.00,,---,0.00,VWS V14.01,2013-04-02 01:50:00,
2013-04-01 18:55:00,65.0,42.6,29.80,SSW,192,0.0,5.0,44,0.00,,---,0.00,VWS V14.01,2013-04-02 01:55:00,
2013-04-01 19:00:00,64.7,42.9,29.80,SSW,192,0.0,5.0,45,0.00,,---,0.00,VWS V14.01,2013-04-02 02:00:00,
2013-04-01 19:05:00,64.2,44.1,29.80,SSW,192,0.0,0.0,48,0.00,,---,0.00,VWS V14.01,2013-04-02 02:05:00,
2013-04-01 19:10:00,63.5,42.4,29.80,SSW,192,0.0,0.0,46,0.00,,---,0.00,VWS V14.01,2013-04-02 02:10:00,
2013-04-01 19:15:00,62.6,42.7,29.80,SSW,192,0.0,0.0,48,0.00,,---,0.00,VWS V14.01,2013-04-02 02:15:00,
2013-04-01 19:20:00,61.8,44.0,29.81,SSW,192,0.0,0.0,52,0.00,,---,0.00,VWS V14.01,2013-04-02 02:20:00,
2013-04-01 19:25:00,60.9,42.7,29.81,SSW,192,0.0,0.0,51,0.00,,---,0.00,VWS V14.01,2013-04-02 02:25:00,
2013-04-01 19:30:00,60.2,42.0,29.81,SSW,192,0.0,0.0,51,0.00,,---,0.00,VWS V14.01,2013-04-02 02:30:00,
2013-04-01 19:35:00,59.2,42.6,29.81,SSW,192,0.0,0.0,54,0.00,,---,0.00,VWS V14.01,2013-04-02 02:35:00,
2013-04-01 19:40:00,55.4,43.4,29.81,SSW,192,0.0,0.0,64,0.00,,---,0.00,VWS V14.01,2013-04-02 02:40:00,
2013-04-01 19:45:00,53.8,41.1,29.81,SSW,192,0.0,0.0,62,0.00,,---,0.00,VWS V14.01,2013-04-02 02:45:00,
2013-04-01 19:50:00,53.0,41.2,29.81,SSW,192,0.0,0.0,64,0.00,,---,0.00,VWS V14.01,2013-04-02 02:50:00,
2013-04-01 19:55:00,52.2,41.2,29.81,SSW,192,0.0,0.0,66,0.00,,---,0.00,VWS V14.01,2013-04-02 02:55:00,
2013-04-01 20:00:00,51.5,40.9,29.81,SSW,192,0.0,0.0,67,0.00,,---,0.00,VWS V14.01,2013-04-02 03:00:00,
2013-04-01 20:05:00,51.0,41.9,29.81,SSW,192,0.0,0.0,71,0.00,,---,0.00,VWS V14.01,2013-04-02 03:05:00,
2013-04-01 20:10:00,50.6,40.8,29.82,SSW,192,0.0,0.0,69,0.00,,---,0.00,VWS V14.01,2013-04-02 03:10:00,
2013-04-01 20:15:00,50.2,40.8,29.82,SSW,192,0.0,0.0,70,0.00,,---,0.00,VWS V14.01,2013-04-02 03:15:00,
2013-04-01 20:20:00,49.7,40.3,29.82,SSW,192,0.0,0.0,70,0.00,,---,0.00,VWS V14.01,2013-04-02 03:20:00,
2013-04-01 20:25:00,49.4,40.8,29.82,SSW,192,0.0,0.0,72,0.00,,---,0.00,VWS V14.01,2013-04-02 03:25:00,
2013-04-01 20:30:00,49.1,42.5,29.82,SSW,192,0.0,0.0,78,0.00,,---,0.00,VWS V14.01,2013-04-02 03:30:00,
2013-04-01 20:35:00,48.9,43.0,29.82,SSW,192,0.0,0.0,80,0.00,,---,0.00,VWS V14.01,2013-04-02 03:35:00,
2013-04-01 20:40:00,48.3,42.8,29.83,SSW,192,0.0,0.0,81,0.00,,---,0.00,VWS V14.01,2013-04-02 03:40:00,
2013-04-01 20:45:00,48.1,41.2,29.83,SSW,192,0.0,0.0,77,0.00,,---,0.00,VWS V14.01,2013-04-02 03:45:00,
2013-04-01 20:50:00,47.7,40.8,29.83,SSW,192,0.0,0.0,77,0.00,,---,0.00,VWS V14.01,2013-04-02 03:50:00,
2013-04-01 20:55:00,47.3,41.8,29.83,SSW,192,0.0,0.0,81,0.00,,---,0.00,VWS V14.01,2013-04-02 03:55:00,
2013-04-01 21:00:00,47.0,41.2,29.83,SSW,192,0.0,0.0,80,0.00,,---,0.00,VWS V14.01,2013-04-02 04:00:00,
2013-04-01 21:05:00,46.7,41.5,29.83,SSW,192,0.0,0.0,82,0.00,,---,0.00,VWS V14.01,2013-04-02 04:05:00,
2013-04-01 21:10:00,46.5,41.3,29.83,SSW,192,0.0,0.0,82,0.00,,---,0.00,VWS V14.01,2013-04-02 04:10:00,
2013-04-01 21:15:00,46.2,41.0,29.83,SSW,192,0.0,0.0,82,0.00,,---,0.00,VWS V14.01,2013-04-02 04:15:00,
2013-04-01 21:20:00,45.9,40.7,29.83,SSW,192,0.0,0.0,82,0.00,,---,0.00,VWS V14.01,2013-04-02 04:20:00,
2013-04-01 21:25:00,45.7,40.5,29.83,SSW,192,0.0,0.0,82,0.00,,---,0.00,VWS V14.01,2013-04-02 04:25:00,
2013-04-01 21:30:00,45.7,42.1,29.83,SSW,192,0.0,0.0,87,0.00,,---,0.00,VWS V14.01,2013-04-02 04:30:00,
2013-04-01 21:35:00,45.1,40.9,29.84,SSW,192,0.0,0.0,85,0.00,,---,0.00,VWS V14.01,2013-04-02 04:35:00,
2013-04-01 21:40:00,45.0,40.8,29.83,SSW,192,0.0,0.0,85,0.00,,---,0.00,VWS V14.01,2013-04-02 04:40:00,
2013-04-01 21:45:00,44.7,39.9,29.84,SSW,192,0.0,0.0,83,0.00,,---,0.00,VWS V14.01,2013-04-02 04:45:00,
2013-04-01 21:50:00,44.3,40.1,29.84,SSW,192,0.0,0.0,85,0.00,,---,0.00,VWS V14.01,2013-04-02 04:50:00,
2013-04-01 21:55:00,44.0,40.4,29.84,SSW,192,0.0,0.0,87,0.00,,---,0.00,VWS V14.01,2013-04-02 04:55:00,
2013-04-01 22:00:00,43.9,40.0,29.84,SSW,192,0.0,0.0,86,0.00,,---,0.00,VWS V14.01,2013-04-02 05:00:00,
2013-04-01 22:05:00,43.7,39.5,29.84,SSW,192,0.0,0.0,85,0.00,,---,0.00,VWS V14.01,2013-04-02 05:05:00,
2013-04-01 22:10:00,43.5,39.6,29.84,SSW,192,0.0,0.0,86,0.00,,---,0.00,VWS V14.01,2013-04-02 05:10:00,
2013-04-01 22:15:00,43.1,38.9,29.84,SSW,192,0.0,0.0,85,0.00,,---,0.00,VWS V14.01,2013-04-02 05:15:00,
2013-04-01 22:20:00,43.1,39.2,29.84,SSW,192,0.0,0.0,86,0.00,,---,0.00,VWS V14.01,2013-04-02 05:20:00,
2013-04-01 22:25:00,42.8,38.9,29.84,SSW,192,0.0,0.0,86,0.00,,---,0.00,VWS V14.01,2013-04-02 05:25:00,
2013-04-01 22:30:00,42.9,39.6,29.84,SSW,192,0.0,0.0,88,0.00,,---,0.00,VWS V14.01,2013-04-02 05:30:00,
2013-04-01 22:35:00,42.6,39.3,29.84,SSW,192,0.0,0.0,88,0.00,,---,0.00,VWS V14.01,2013-04-02 05:35:00,
2013-04-01 22:40:00,42.3,39.3,29.84,SSW,192,0.0,0.0,89,0.00,,---,0.00,VWS V14.01,2013-04-02 05:40:00,
2013-04-01 22:45:00,42.2,38.9,29.84,SSW,192,0.0,0.0,88,0.00,,---,0.00,VWS V14.01,2013-04-02 05:45:00,
2013-04-01 22:50:00,41.8,38.2,29.84,SSW,192,0.0,0.0,87,0.00,,---,0.00,VWS V14.01,2013-04-02 05:50:00,
2013-04-01 22:55:00,41.8,38.8,29.84,SSW,192,0.0,0.0,89,0.00,,---,0.00,VWS V14.01,2013-04-02 05:55:00,
2013-04-01 23:00:00,41.7,38.1,29.84,SSW,192,0.0,0.0,87,0.00,,---,0.00,VWS V14.01,2013-04-02 06:00:00,
2013-04-01 23:05:00,41.2,37.9,29.84,SSW,192,0.0,0.0,88,0.00,,---,0.00,VWS V14.01,2013-04-02 06:05:00,
2013-04-01 23:10:00,40.8,37.5,29.85,SSW,192,0.0,0.0,88,0.00,,---,0.00,VWS V14.01,2013-04-02 06:10:00,
2013-04-01 23:15:00,40.9,37.6,29.85,SSW,192,0.0,0.0,88,0.00,,---,0.00,VWS V14.01,2013-04-02 06:15:00,
2013-04-01 23:20:00,40.9,37.9,29.85,SSW,192,0.0,0.0,89,0.00,,---,0.00,VWS V14.01,2013-04-02 06:20:00,
2013-04-01 23:25:00,40.7,37.7,29.85,SSW,192,0.0,0.0,89,0.00,,---,0.00,VWS V14.01,2013-04-02 06:25:00,
2013-04-01 23:30:00,40.6,37.6,29.84,SSW,192,0.0,0.0,89,0.00,,---,0.00,VWS V14.01,2013-04-02 06:30:00,
2013-04-01 23:35:00,40.5,37.8,29.84,SSW,192,0.0,0.0,90,0.00,,---,0.00,VWS V14.01,2013-04-02 06:35:00,
2013-04-01 23:40:00,40.2,37.8,29.84,SSW,192,0.0,0.0,91,0.00,,---,0.00,VWS V14.01,2013-04-02 06:40:00,
2013-04-01 23:45:00,40.2,37.5,29.84,SSW,192,0.0,0.0,90,0.00,,---,0.00,VWS V14.01,2013-04-02 06:45:00,
2013-04-01 23:50:00,40.1,37.7,29.85,SSW,192,0.0,0.0,91,0.00,,---,0.00,VWS V14.01,2013-04-02 06:50:00,
2013-04-01 23:55:00,40.0,37.9,29.84,SSW,192,0.0,0.0,92,0.00,,---,0.00,VWS V14.01,2013-04-02 06:55:00,